TimeCDT,TemperatureF,Dew PointF,Humidity,Sea Level PressureIn,VisibilityMPH,Wind Direction,Wind SpeedMPH,Gust SpeedMPH,PrecipitationIn,Events,Conditions,WindDirDegrees,DateUTC
12:15 AM,76.8,67.6,73,29.90,10.0,Calm,Calm,-,N/A,,Clear,0,2013-10-19 05:15:00
12:35 AM,76.3,67.6,74,29.89,7.0,Calm,Calm,-,N/A,,Clear,0,2013-10-19 05:35:00
12:55 AM,75.9,67.5,75,29.90,7.0,Calm,Calm,-,N/A,,Scattered Clouds,0,2013-10-19 05:55:00
1:15 AM,76.1,67.5,74,29.90,7.0,Calm,Calm,-,N/A,,Overcast,0,2013-10-19 06:15:00
1:35 AM,76.1,67.8,75,29.89,7.0,Calm,Calm,-,N/A,,Overcast,0,2013-10-19 06:35:00
1:55 AM,75.4,68.0,78,29.89,7.0,Calm,Calm,-,N/A,,Scattered Clouds,0,2013-10-19 06:55:00
2:15 AM,74.7,67.6,79,29.90,7.0,Calm,Calm,-,N/A,,Clear,0,2013-10-19 07:15:00
2:35 AM,74.3,67.6,80,29.90,10.0,Calm,Calm,-,N/A,,Mostly Cloudy,0,2013-10-19 07:35:00
2:55 AM,74.8,68.4,80,29.90,7.0,Calm,Calm,-,N/A,,Mostly Cloudy,0,2013-10-19 07:55:00
3:15 AM,74.7,68.9,82,29.90,7.0,Calm,Calm,-,N/A,,Scattered Clouds,0,2013-10-19 08:15:00
3:35 AM,74.8,69.3,83,29.90,7.0,Calm,Calm,-,N/A,,Mostly Cloudy,0,2013-10-19 08:35:00
5:35 AM,76.1,72.1,87,29.94,7.0,North,15.0,18.4,N/A,,Overcast,360,2013-10-19 10:35:00
5:55 AM,75.7,71.6,87,29.95,7.0,Calm,Calm,-,N/A,,Overcast,0,2013-10-19 10:55:00
6:15 AM,75.2,70.7,86,29.96,7.0,North,12.7,16.1,N/A,,Overcast,360,2013-10-19 11:15:00
6:35 AM,74.8,70.0,85,29.97,7.0,North,16.1,-,N/A,,Overcast,360,2013-10-19 11:35:00
6:55 AM,74.5,69.4,84,29.98,7.0,North,12.7,20.7,N/A,,Overcast,10,2013-10-19 11:55:00
7:55 AM,72.5,66.6,82,30.02,7.0,North,15.0,-,N/A,,Overcast,10,2013-10-19 12:55:00
8:15 AM,71.6,65.8,82,30.04,5.0,NNE,16.1,21.9,N/A,,Haze,20,2013-10-19 13:15:00
8:35 AM,71.6,65.3,80,30.05,7.0,NNE,13.8,-,N/A,,Overcast,20,2013-10-19 13:35:00
8:55 AM,71.8,64.8,78,30.05,10.0,NNE,18.4,-,N/A,,Overcast,20,2013-10-19 13:55:00
9:15 AM,71.8,64.4,77,30.07,10.0,NNE,15.0,20.7,N/A,,Overcast,20,2013-10-19 14:15:00
9:35 AM,72.0,63.7,75,30.07,10.0,North,15.0,23.0,N/A,,Overcast,10,2013-10-19 14:35:00
9:55 AM,72.7,63.5,73,30.08,10.0,NNE,15.0,-,N/A,,Overcast,20,2013-10-19 14:55:00
10:15 AM,73.4,62.4,68,30.09,-9999.0,North,16.1,25.3,N/A,,Overcast,10,2013-10-19 15:15:00
10:35 AM,73.8,62.1,67,30.09,10.0,North,18.4,25.3,N/A,,Overcast,10,2013-10-19 15:35:00
10:55 AM,73.4,60.3,63,30.09,10.0,NNE,20.7,26.5,N/A,,Overcast,30,2013-10-19 15:55:00
11:15 AM,74.5,60.1,61,30.09,10.0,NNE,18.4,26.5,N/A,,Overcast,20,2013-10-19 16:15:00
11:35 AM,75.2,60.3,60,30.09,10.0,NNE,16.1,21.9,N/A,,Overcast,20,2013-10-19 16:35:00
11:55 AM,76.1,61.0,59,30.09,10.0,North,15.0,18.4,N/A,,Overcast,360,2013-10-19 16:55:00
1:55 PM,77.4,56.8,49,30.06,7.0,NNE,17.3,-,N/A,,Mostly Cloudy,20,2013-10-19 18:55:00
2:15 PM,78.1,56.7,48,30.06,10.0,NNE,15.0,20.7,N/A,,Overcast,30,2013-10-19 19:15:00
2:35 PM,79.3,56.5,45,30.06,10.0,Calm,Calm,-,N/A,,Scattered Clouds,0,2013-10-19 19:35:00
2:55 PM,78.8,56.3,46,30.05,10.0,NE,13.8,-,N/A,,Scattered Clouds,40,2013-10-19 19:55:00
3:15 PM,78.8,55.9,45,30.05,10.0,NNE,12.7,-,N/A,,Mostly Cloudy,20,2013-10-19 20:15:00
3:35 PM,79.2,55.8,44,30.05,7.0,NNE,16.1,21.9,N/A,,Overcast,20,2013-10-19 20:35:00
3:55 PM,79.7,55.6,43,30.04,7.0,North,16.1,-,N/A,,Overcast,10,2013-10-19 20:55:00
4:15 PM,79.7,55.8,44,30.04,7.0,North,10.4,16.1,N/A,,Overcast,10,2013-10-19 21:15:00
4:35 PM,79.7,56.3,44,30.04,7.0,NNE,11.5,-,N/A,,Overcast,30,2013-10-19 21:35:00
4:55 PM,79.7,55.6,43,30.04,10.0,NNE,13.8,-,N/A,,Overcast,20,2013-10-19 21:55:00
5:15 PM,79.3,56.1,45,30.04,7.0,NNE,9.2,16.1,N/A,,Overcast,20,2013-10-19 22:15:00
5:35 PM,79.9,55.8,43,30.03,7.0,NE,12.7,16.1,N/A,,Overcast,40,2013-10-19 22:35:00
5:55 PM,79.7,55.8,44,30.04,7.0,NE,9.2,-,N/A,,Scattered Clouds,50,2013-10-19 22:55:00
6:15 PM,78.1,56.5,47,30.03,7.0,Calm,Calm,-,N/A,,Clear,0,2013-10-19 23:15:00
6:35 PM,77.0,56.3,49,30.05,7.0,Calm,Calm,-,N/A,,Clear,0,2013-10-19 23:35:00
6:55 PM,75.7,56.5,51,30.05,7.0,Calm,Calm,-,N/A,,Clear,0,2013-10-19 23:55:00
7:15 PM,75.2,57.2,53,30.05,10.0,Calm,Calm,-,N/A,,Clear,0,2013-10-20 00:15:00
7:35 PM,74.7,57.7,55,30.05,10.0,Calm,Calm,-,N/A,,Clear,0,2013-10-20 00:35:00
7:55 PM,73.6,57.7,58,30.06,10.0,Calm,Calm,-,N/A,,Clear,0,2013-10-20 00:55:00
8:15 PM,72.5,59.0,62,30.07,10.0,Calm,Calm,-,N/A,,Clear,0,2013-10-20 01:15:00
9:15 PM,70.2,60.4,71,30.08,10.0,Calm,Calm,-,N/A,,Clear,0,2013-10-20 02:15:00
9:35 PM,69.6,60.3,72,30.08,10.0,Calm,Calm,-,N/A,,Clear,0,2013-10-20 02:35:00
9:55 PM,69.1,60.3,73,30.09,10.0,Calm,Calm,-,N/A,,Clear,0,2013-10-20 02:55:00
10:15 PM,68.9,60.1,73,30.09,10.0,Calm,Calm,-,N/A,,Clear,0,2013-10-20 03:15:00
10:35 PM,68.4,59.9,74,30.09,10.0,Calm,Calm,-,N/A,,Clear,0,2013-10-20 03:35:00
10:55 PM,67.8,59.9,76,30.10,10.0,Calm,Calm,-,N/A,,Clear,0,2013-10-20 03:55:00
11:15 PM,67.8,59.5,75,30.10,10.0,Calm,Calm,-,N/A,,Clear,0,2013-10-20 04:15:00
11:35 PM,67.3,56.8,69,30.10,10.0,Calm,Calm,-,N/A,,Scattered Clouds,0,2013-10-20 04:35:00
11:55 PM,65.7,57.2,74,30.09,10.0,Calm,Calm,-,N/A,,Clear,0,2013-10-20 04:55:00